Date String (YYYY-MM-DD hh:mm:ss) UTC,Instrument flags,Ambient pressure (hPa),Sample flow (lpm),Bypass flow (lpm),Sample temperature (°C),Ambient temperature (°C),ASC tube jacket temperature (°C),LED temperature (°C),Box temperature (°C),Sample RH (%),Span deviation,Mass concentration (μg/m³),Mass concentration (μg/m³),Mass concentration (μg/m³)
DateTimeUTC,F1_M11,P_M11,Q1_M11,Q2_M11,T1_M11,T2_M11,T3_M11,T4_M11,T5_M11,U1_M11,ZSPAN_M11,X0_M11,X2_M11,X1_M11
2022-08-11 23:00:00,,0829.2,5.00,0.00,29.2,27.4,00.0,38.0,31.1,28.1,0000.0,0015.68,0006.86,0005.34
2022-08-11 23:01:00,,0829.2,5.00,0.00,29.3,27.6,00.0,38.0,31.1,28.1,0000.0,0017.19,0006.96,0005.35
2022-08-11 23:02:00,,0829.2,5.00,0.00,29.3,27.9,00.0,38.0,31.2,28.3,0000.0,0017.29,0007.00,0005.36
2022-08-11 23:03:00,,0829.3,5.00,0.00,29.4,28.1,00.0,38.1,31.3,28.5,0000.0,0017.48,0006.96,0005.34
2022-08-11 23:04:00,,0829.2,4.99,0.00,29.4,28.2,00.0,38.1,31.4,28.5,0000.0,0017.52,0006.97,0005.33
2022-08-11 23:05:00,,0829.2,5.02,0.00,29.4,27.7,00.0,38.1,31.3,28.9,0000.0,0017.77,0006.99,0005.33
2022-08-11 23:06:00,,0829.1,4.99,0.00,29.4,27.3,00.0,38.0,31.1,28.1,0000.0,0017.44,0006.99,0005.34
2022-08-11 23:07:00,,0829.1,5.01,0.00,29.3,27.2,00.0,38.0,31.1,27.9,0000.0,0017.40,0007.00,0005.36
2022-08-11 23:08:00,,0829.1,4.99,0.00,29.3,27.3,00.0,38.0,31.1,27.7,0000.0,0018.66,0007.06,0005.35
2022-08-11 23:09:00,,0829.1,5.01,0.00,29.3,27.5,00.0,38.0,31.0,27.8,0000.0,0018.65,0007.10,0005.36
2022-08-11 23:10:00,,0829.1,5.00,0.00,29.3,27.7,00.0,38.0,31.2,27.2,0000.0,0018.57,0007.18,0005.35
2022-08-11 23:11:00,,0829.1,5.00,0.00,29.3,28.0,00.0,38.0,31.3,27.8,0000.0,0019.14,0007.28,0005.38
2022-08-11 23:12:00,,0829.1,5.00,0.00,29.4,28.2,00.0,38.1,31.4,27.8,0000.0,0018.79,0007.33,0005.40
2022-08-11 23:13:00,,0829.0,4.99,0.00,29.4,28.0,00.0,38.1,31.4,28.1,0000.0,0019.53,0007.29,0005.40
2022-08-11 23:14:00,,0829.1,5.01,0.00,29.4,27.4,00.0,38.0,31.1,27.9,0000.0,0020.07,0007.34,0005.43
2022-08-11 23:15:00,,0829.1,5.00,0.00,29.3,27.2,00.0,38.0,31.1,27.7,0000.0,0020.13,0007.40,0005.46
2022-08-11 23:16:00,,0829.1,5.00,0.00,29.3,27.3,00.0,38.0,31.1,28.1,0000.0,0019.76,0007.42,0005.47
2022-08-11 23:17:00,,0829.1,5.00,0.00,29.3,27.4,00.0,38.0,31.1,27.9,0000.0,0020.49,0007.44,0005.50
2022-08-11 23:18:00,,0829.1,4.99,0.00,29.3,27.7,00.0,38.0,31.1,27.4,0000.0,0021.06,0007.42,0005.50
2022-08-11 23:19:00,,0829.1,5.01,0.00,29.3,27.9,00.0,38.0,31.2,27.0,0000.0,0020.40,0007.40,0005.50
2022-08-11 23:20:00,,0829.0,5.00,0.00,29.4,28.1,00.0,38.1,31.3,27.2,0000.0,0020.57,0007.37,0005.52
2022-08-11 23:21:00,,0829.0,4.99,0.00,29.4,28.2,00.0,38.1,31.4,27.2,0000.0,0021.91,0007.27,0005.53
2022-08-11 23:22:00,,0829.0,5.01,0.00,29.4,27.8,00.0,38.1,31.3,27.1,0000.0,0023.48,0007.23,0005.53
2022-08-11 23:23:00,,0829.0,4.99,0.00,29.4,27.4,00.0,38.0,31.2,27.4,0000.0,0022.89,0007.16,0005.51
2022-08-11 23:24:00,,0828.9,5.01,0.00,29.3,27.3,00.0,38.0,31.2,27.3,0000.0,0021.70,0007.17,0005.51
2022-08-11 23:25:00,,0828.9,4.99,0.00,29.3,27.4,00.0,38.0,31.1,27.4,0000.0,0021.01,0007.19,0005.51
2022-08-11 23:26:00,,0829.0,5.01,0.00,29.3,27.6,00.0,38.0,31.2,27.8,0000.0,0021.94,0007.16,0005.51
2022-08-11 23:27:00,,0829.0,4.99,0.00,29.3,27.8,00.0,38.0,31.2,27.4,0000.0,0022.42,0007.14,0005.50
2022-08-11 23:28:00,,0829.0,4.99,0.00,29.4,28.0,00.0,38.1,31.3,27.6,0000.0,0021.92,0007.13,0005.49
2022-08-11 23:29:00,,0828.9,5.01,0.00,29.4,28.1,00.0,38.1,31.4,27.2,0000.0,0020.94,0007.11,0005.47
2022-08-11 23:30:00,,0828.9,4.99,0.00,29.4,27.8,00.0,38.1,31.3,26.8,0000.0,0020.82,0007.12,0005.49
2022-08-11 23:31:00,,0828.9,4.99,0.00,29.4,27.3,00.0,38.0,31.1,26.9,0000.0,0020.69,0007.16,0005.50
2022-08-11 23:32:00,,0828.8,5.00,0.00,29.3,27.2,00.0,38.0,31.1,27.3,0000.0,0019.23,0007.22,0005.52
2022-08-11 23:33:00,,0828.9,5.00,0.00,29.3,27.4,00.0,38.0,31.1,27.3,0000.0,0017.61,0007.21,0005.53
2022-08-11 23:34:00,,0828.8,4.99,0.00,29.3,27.5,00.0,38.0,31.1,27.4,0000.0,0017.56,0007.19,0005.54
2022-08-11 23:35:00,,0828.9,5.02,0.00,29.3,27.7,00.0,38.0,31.2,27.5,0000.0,0017.52,0007.19,0005.54
2022-08-11 23:36:00,,0828.8,4.99,0.00,29.3,28.0,00.0,38.0,31.3,28.0,0000.0,0017.76,0007.13,0005.53
2022-08-11 23:37:00,,0829.1,4.99,0.00,29.4,28.1,00.0,38.1,31.3,27.8,0000.0,0017.09,0007.08,0005.53
2022-08-11 23:38:00,,0829.3,5.00,0.00,29.4,27.7,00.0,38.0,31.2,28.4,0000.0,0017.88,0007.09,0005.55
2022-08-11 23:39:00,,0829.1,5.01,0.00,29.3,27.2,00.0,38.0,31.1,28.5,0000.0,0017.95,0007.07,0005.54
2022-08-11 23:40:00,,0829.3,4.99,0.00,29.3,27.2,00.0,38.0,31.1,28.9,0000.0,0018.22,0007.05,0005.53
2022-08-11 23:41:00,,0829.3,5.00,0.00,29.2,27.3,00.0,38.0,31.0,29.9,0000.0,0018.40,0007.02,0005.52
2022-08-11 23:42:00,,0829.0,5.00,0.00,29.2,27.5,00.0,38.0,31.1,29.6,0000.0,0018.37,0006.93,0005.50
2022-08-11 23:43:00,,0829.3,5.00,0.00,29.3,27.7,00.0,38.0,31.1,29.1,0000.0,0018.13,0006.86,0005.48
2022-08-11 23:44:00,,0829.1,4.99,0.00,29.3,27.9,00.0,38.0,31.3,30.3,0000.0,0018.18,0006.89,0005.45
2022-08-11 23:45:00,,0829.2,5.01,0.00,29.4,28.1,00.0,38.1,31.4,28.6,0000.0,0019.37,0006.89,0005.44
2022-08-11 23:46:00,,0829.1,5.00,0.00,29.4,28.3,00.0,38.1,31.4,28.5,0000.0,0019.45,0006.84,0005.44
2022-08-11 23:47:00,,0828.7,4.99,0.00,29.4,27.9,00.0,38.1,31.3,28.0,0000.0,0019.05,0006.83,0005.42
2022-08-11 23:48:00,,0828.7,5.00,0.00,29.4,27.4,00.0,38.0,31.2,28.6,0000.0,0018.81,0006.88,0005.42
2022-08-11 23:49:00,,0828.7,5.00,0.00,29.3,27.3,00.0,38.0,31.2,28.5,0000.0,0017.59,0006.88,0005.41
2022-08-11 23:50:00,,0828.7,4.98,0.00,29.3,27.4,00.0,38.0,31.1,28.6,0000.0,0017.16,0006.88,0005.41
2022-08-11 23:51:00,,0828.7,5.00,0.00,29.3,27.6,00.0,38.0,31.1,28.8,0000.0,0016.92,0006.95,0005.41
2022-08-11 23:52:00,,0828.7,5.00,0.00,29.3,27.8,00.0,38.0,31.2,28.0,0000.0,0017.74,0006.91,0005.42
2022-08-11 23:53:00,,0828.7,5.00,0.00,29.4,28.0,00.0,38.1,31.3,27.8,0000.0,0018.19,0006.99,0005.42
2022-08-11 23:54:00,,0828.7,5.00,0.00,29.4,28.2,00.0,38.1,31.4,28.3,0000.0,0018.08,0007.01,0005.43
2022-08-11 23:55:00,,0828.7,4.99,0.00,29.5,28.2,00.0,38.1,31.4,28.5,0000.0,0017.34,0006.90,0005.45
2022-08-11 23:56:00,,0828.8,5.00,0.00,29.4,27.6,00.0,38.1,31.2,27.9,0000.0,0016.90,0006.90,0005.46
2022-08-11 23:57:00,,0828.7,4.99,0.00,29.4,27.2,00.0,38.0,31.2,27.7,0000.0,0017.73,0006.89,0005.47
2022-08-11 23:58:00,,0828.8,4.99,0.00,29.3,27.2,00.0,38.0,31.1,28.1,0000.0,0018.73,0006.89,0005.48
2022-08-11 23:59:00,,0828.7,5.01,0.00,29.3,27.4,00.0,38.0,31.1,29.0,0000.0,0020.20,0006.87,0005.50
